| time (UTC) | temp F | wind direction | speed MPH | gust MPH | rain 1hr in | rain 24hr in | rain mn in | humidity % | barometer mb |
| 20260901114023 | 69 | 169 | 2.0 | 6.0 | 0.01 | 0.23 | 0.23 | 96 | 1016.8 |
| 20260901113523 | 69 | 0 | 1.0 | 5.0 | 0.01 | 0.23 | 0.23 | 96 | 1016.8 |
| 20260901113047 | 69 | 223 | 1.0 | 5.0 | 0.01 | 0.23 | 0.23 | 96 | 1016.8 |
| 20260901112522 | 69 | 0 | 1.0 | 5.0 | 0.01 | 0.23 | 0.23 | 96 | 1016.7 |
| 20260901112022 | 69 | 185 | 1.0 | 3.0 | 0.01 | 0.23 | 0.23 | 96 | 1016.6 |
| 20260901111548 | 69 | 0 | 0.0 | 2.0 | 0.01 | 0.23 | 0.23 | 96 | 1016.8 |
| 20260901111026 | 69 | 0 | 0.0 | 3.0 | 0.01 | 0.23 | 0.23 | 96 | 1016.8 |
| 20260901110525 | 69 | 176 | 0.0 | 3.0 | 0.01 | 0.23 | 0.23 | 96 | 1016.9 |
| 20260901110050 | 69 | 0 | 0.0 | 4.0 | 0.01 | 0.22 | 0.22 | 96 | 1016.7 |
| 20260901105527 | 69 | 0 | 0.0 | 4.0 | 0.01 | 0.22 | 0.22 | 96 | 1016.6 |
| 20260901105027 | 69 | 0 | 1.0 | 4.0 | 0.01 | 0.22 | 0.22 | 96 | 1016.5 |
| 20260901104545 | 69 | 0 | 0.0 | 3.0 | 0.01 | 0.22 | 0.22 | 96 | 1016.6 |
| 20260901104027 | 69 | 0 | 0.0 | 3.0 | 0.01 | 0.22 | 0.22 | 96 | 1016.7 |
| 20260901103530 | 69 | 167 | 0.0 | 4.0 | 0.01 | 0.22 | 0.22 | 96 | 1016.5 |
| 20260901103042 | 69 | 206 | 1.0 | 4.0 | 0.01 | 0.22 | 0.22 | 96 | 1016.4 |
| 20260901102525 | 69 | 159 | 0.0 | 3.0 | 0.01 | 0.22 | 0.22 | 96 | 1016.6 |
| 20260901102023 | 69 | 236 | 0.0 | 3.0 | 0.01 | 0.22 | 0.22 | 95 | 1016.5 |
| 20260901101546 | 69 | 165 | 0.0 | 2.0 | 0.02 | 0.22 | 0.22 | 95 | 1016.4 |
| 20260901101024 | 69 | 0 | 0.0 | 1.0 | 0.02 | 0.22 | 0.22 | 95 | 1016.4 |
| 20260901100524 | 69 | 178 | 0.0 | 1.0 | 0.01 | 0.21 | 0.21 | 95 | 1016.5 |
| 20260901100047 | 69 | 167 | 0.0 | 2.0 | 0.01 | 0.21 | 0.21 | 95 | 1016.5 |
| 20260901095520 | 69 | 184 | 0.0 | 2.0 | 0.01 | 0.21 | 0.21 | 95 | 1016.5 |
| 20260901095024 | 69 | 0 | 0.0 | 2.0 | 0.01 | 0.21 | 0.21 | 95 | 1016.5 |
| 20260901094550 | 69 | 0 | 0.0 | 3.0 | 0.01 | 0.21 | 0.21 | 95 | 1016.5 |
| 20260901094026 | 69 | 226 | 0.0 | 3.0 | 0.01 | 0.21 | 0.21 | 95 | 1016.3 |
| 20260901093527 | 69 | 161 | 0.0 | 4.0 | 0.02 | 0.21 | 0.21 | 95 | 1016.5 |
| 20260901093043 | 69 | 178 | 0.0 | 4.0 | 0.02 | 0.21 | 0.21 | 95 | 1016.5 |
| 20260901092524 | 69 | 158 | 0.0 | 2.0 | 0.04 | 0.21 | 0.21 | 95 | 1016.7 |
| 20260901092025 | 69 | 0 | 0.0 | 2.0 | 0.05 | 0.21 | 0.21 | 95 | 1016.6 |
| 20260901091540 | 68 | 0 | 0.0 | 1.0 | 0.05 | 0.20 | 0.20 | 95 | 1016.7 |
| 20260901091024 | 68 | 0 | 0.0 | 1.0 | 0.06 | 0.20 | 0.20 | 95 | 1016.7 |
| 20260901090525 | 68 | 0 | 0.0 | 0.0 | 0.06 | 0.20 | 0.20 | 94 | 1016.6 |
| 20260901090044 | 68 | 0 | 0.0 | 1.0 | 0.06 | 0.20 | 0.20 | 94 | 1016.8 |
| 20260901085524 | 68 | 0 | 0.0 | 1.0 | 0.07 | 0.20 | 0.20 | 94 | 1017.0 |
| 20260901085024 | 68 | 0 | 0.0 | 1.0 | 0.07 | 0.20 | 0.20 | 95 | 1017.1 |
| 20260901084547 | 68 | 0 | 0.0 | 0.0 | 0.08 | 0.20 | 0.20 | 94 | 1017.1 |
| 20260901084025 | 68 | 0 | 0.0 | 0.0 | 0.08 | 0.20 | 0.20 | 94 | 1017.1 |
| 20260901083525 | 68 | 0 | 0.0 | 0.0 | 0.07 | 0.19 | 0.19 | 94 | 1017.1 |
| 20260901083041 | 68 | 0 | 0.0 | 0.0 | 0.06 | 0.18 | 0.18 | 94 | 1017.2 |
| 20260901082523 | 68 | 0 | 0.0 | 1.0 | 0.06 | 0.17 | 0.17 | 94 | 1017.2 |
| 20260901082025 | 68 | 0 | 0.0 | 1.0 | 0.07 | 0.16 | 0.16 | 94 | 1017.2 |
| 20260901081547 | 68 | 0 | 0.0 | 1.0 | 0.08 | 0.15 | 0.15 | 94 | 1017.2 |
| 20260901081025 | 68 | 0 | 0.0 | 0.0 | 0.09 | 0.14 | 0.14 | 94 | 1017.3 |
| 20260901080525 | 68 | 0 | 0.0 | 0.0 | 0.09 | 0.14 | 0.14 | 94 | 1017.2 |
| 20260901080046 | 68 | 0 | 0.0 | 1.0 | 0.09 | 0.13 | 0.13 | 94 | 1017.2 |
| 20260901075525 | 68 | 0 | 0.0 | 1.0 | 0.09 | 0.13 | 0.13 | 94 | 1017.2 |
| 20260901075023 | 69 | 0 | 0.0 | 1.0 | 0.10 | 0.13 | 0.13 | 94 | 1017.3 |
| 20260901074544 | 69 | 0 | 0.0 | 1.0 | 0.09 | 0.12 | 0.12 | 94 | 1017.4 |
| 20260901074024 | 69 | 0 | 0.0 | 1.0 | 0.10 | 0.12 | 0.12 | 94 | 1017.5 |
| 20260901073524 | 69 | 0 | 0.0 | 2.0 | 0.11 | 0.12 | 0.12 | 94 | 1017.5 |
| 20260901073043 | 69 | 0 | 0.0 | 2.0 | 0.10 | 0.11 | 0.11 | 93 | 1017.4 |
| 20260901072524 | 69 | 165 | 0.0 | 5.0 | 0.10 | 0.11 | 0.11 | 94 | 1017.4 |
| 20260901072024 | 69 | 0 | 1.0 | 5.0 | 0.09 | 0.09 | 0.09 | 94 | 1017.4 |
| 20260901071546 | 69 | 190 | 0.0 | 3.0 | 0.07 | 0.07 | 0.07 | 94 | 1017.4 |
| 20260901071025 | 69 | 200 | 0.0 | 4.0 | 0.05 | 0.05 | 0.05 | 94 | 1017.3 |
| 20260901070525 | 69 | 0 | 0.0 | 4.0 | 0.04 | 0.04 | 0.04 | 94 | 1017.4 |
| 20260901070048 | 69 | 182 | 0.0 | 3.0 | 0.04 | 0.04 | 0.04 | 94 | 1017.5 |
| 20260901065525 | 70 | 0 | 0.0 | 5.0 | 0.04 | 0.04 | 0.04 | 93 | 1017.5 |
| 20260901065024 | 70 | 169 | 2.0 | 5.0 | 0.03 | 0.03 | 0.03 | 93 | 1017.5 |
| 20260901064544 | 69 | 0 | 0.0 | 4.0 | 0.02 | 0.02 | 0.02 | 93 | 1017.5 |
| 20260901064026 | 69 | 0 | 0.0 | 4.0 | 0.02 | 0.02 | 0.02 | 93 | 1017.5 |
| 20260901063522 | 69 | 178 | 0.0 | 4.0 | 0.01 | 0.01 | 0.01 | 93 | 1017.5 |
| 20260901063050 | 69 | 0 | 0.0 | 0.0 | 0.01 | 0.01 | 0.01 | 93 | 1017.6 |
| 20260901062522 | 69 | 0 | 0.0 | 0.0 | 0.01 | 0.01 | 0.01 | 93 | 1017.8 |
| 20260901062024 | 69 | 0 | 0.0 | 0.0 | 0.00 | 0.00 | 0.00 | 93 | 1017.8 |
| 20260901061549 | 69 | 0 | 0.0 | 0.0 | 0.00 | 0.00 | 0.00 | 92 | 1017.8 |
| 20260901061025 | 69 | 0 | 0.0 | 0.0 | 0.00 | 0.00 | 0.00 | 92 | 1017.7 |
| 20260901060524 | 69 | 0 | 0.0 | 0.0 | 0.00 | 0.00 | 0.00 | 92 | 1017.8 |
| 20260901060059 | 69 | 0 | 0.0 | 0.0 | 0.00 | 0.00 | 0.00 | 92 | 1017.7 |
| 20260901055525 | 69 | 0 | 0.0 | 0.0 | 0.00 | 0.00 | 0.00 | 92 | 1017.8 |
| 20260901055025 | 69 | 0 | 0.0 | 0.0 | 0.00 | 0.00 | 0.00 | 92 | 1017.8 |
| 20260901054545 | 69 | 0 | 0.0 | 0.0 | 0.00 | 0.00 | 0.00 | 92 | 1017.9 |
| 20260901054025 | 69 | 0 | 0.0 | 0.0 | 0.00 | 0.00 | 0.00 | 92 | 1017.9 |
| 20260901053526 | 69 | 0 | 0.0 | 0.0 | 0.00 | 0.00 | 0.00 | 92 | 1018.0 |
| 20260901053106 | 69 | 0 | 0.0 | 0.0 | 0.00 | 0.00 | 0.00 | 91 | 1018.0 |
| 20260901052523 | 69 | 0 | 0.0 | 0.0 | 0.00 | 0.00 | 0.00 | 91 | 1017.9 |
| 20260901052023 | 70 | 0 | 0.0 | 0.0 | 0.00 | 0.00 | 0.00 | 91 | 1018.0 |
| 20260901051601 | 70 | 0 | 0.0 | 0.0 | 0.00 | 0.00 | 0.00 | 91 | 1018.0 |
| 20260901051023 | 70 | 0 | 0.0 | 1.0 | 0.00 | 0.00 | 0.00 | 91 | 1018.1 |
| 20260901050526 | 70 | 0 | 0.0 | 1.0 | 0.00 | 0.00 | 0.00 | 90 | 1018.1 |
| 20260901050043 | 70 | 0 | 0.0 | 0.0 | 0.00 | 0.00 | 0.00 | 90 | 1018.1 |
| 20260901045522 | 70 | 0 | 0.0 | 0.0 | 0.00 | 0.00 | 0.00 | 90 | 1018.1 |
| 20260901045027 | 70 | 0 | 0.0 | 0.0 | 0.00 | 0.00 | 0.00 | 90 | 1018.3 |
| 20260901044558 | 70 | 0 | 0.0 | 1.0 | 0.00 | 0.00 | 0.00 | 90 | 1018.3 |
| 20260901044023 | 70 | 0 | 0.0 | 1.0 | 0.00 | 0.00 | 0.00 | 89 | 1018.3 |
| 20260901043527 | 70 | 0 | 0.0 | 1.0 | 0.00 | 0.00 | 0.00 | 89 | 1018.4 |
| 20260901043051 | 70 | 0 | 0.0 | 1.0 | 0.00 | 0.00 | 0.00 | 89 | 1018.4 |
| 20260901042524 | 70 | 0 | 0.0 | 2.0 | 0.00 | 0.00 | 0.00 | 89 | 1018.4 |
| 20260901042023 | 70 | 0 | 0.0 | 2.0 | 0.00 | 0.00 | 0.00 | 89 | 1018.3 |
| 20260901041549 | 70 | 192 | 0.0 | 2.0 | 0.00 | 0.00 | 0.00 | 89 | 1018.3 |
| 20260901041024 | 70 | 0 | 0.0 | 2.0 | 0.00 | 0.00 | 0.00 | 89 | 1018.2 |
| 20260901040524 | 70 | 0 | 0.0 | 1.0 | 0.00 | 0.00 | 0.00 | 88 | 1018.2 |
| 20260901040104 | 70 | 0 | 0.0 | 4.0 | 0.00 | 0.00 | 0.00 | 88 | 1018.2 |
| 20260901035526 | 70 | 0 | 0.0 | 4.0 | 0.00 | 0.01 | 0.00 | 88 | 1018.3 |
| 20260901035022 | 70 | 0 | 0.0 | 4.0 | 0.00 | 0.01 | 0.00 | 88 | 1018.3 |
| 20260901034559 | 71 | 0 | 0.0 | 4.0 | 0.00 | 0.01 | 0.00 | 88 | 1018.3 |
| 20260901034025 | 71 | 0 | 0.0 | 2.0 | 0.00 | 0.01 | 0.00 | 87 | 1018.4 |
| 20260901033524 | 71 | 208 | 0.0 | 2.0 | 0.00 | 0.01 | 0.00 | 87 | 1018.5 |
| 20260901033044 | 71 | 214 | 0.0 | 1.0 | 0.00 | 0.01 | 0.00 | 87 | 1018.6 |
| 20260901032524 | 71 | 0 | 0.0 | 1.0 | 0.00 | 0.01 | 0.00 | 87 | 1018.6 |
| 20260901032024 | 71 | 244 | 0.0 | 2.0 | 0.00 | 0.01 | 0.00 | 86 | 1018.7 |
| 20260901031544 | 71 | 240 | 0.0 | 5.0 | 0.00 | 0.01 | 0.00 | 86 | 1018.8 |
| 20260901031030 | 71 | 0 | 1.0 | 5.0 | 0.00 | 0.01 | 0.00 | 86 | 1018.7 |
| 20260901030523 | 71 | 196 | 0.0 | 7.0 | 0.00 | 0.01 | 0.00 | 85 | 1018.8 |
| 20260901030041 | 71 | 178 | 0.0 | 8.0 | 0.00 | 0.01 | 0.00 | 85 | 1018.8 |
| 20260901025524 | 71 | 178 | 2.0 | 8.0 | 0.00 | 0.01 | 0.00 | 85 | 1018.7 |
| 20260901025024 | 71 | 0 | 0.0 | 6.0 | 0.00 | 0.01 | 0.00 | 85 | 1018.7 |
| 20260901024550 | 71 | 153 | 0.0 | 5.0 | 0.00 | 0.01 | 0.00 | 85 | 1018.6 |
| 20260901024028 | 71 | 0 | 0.0 | 5.0 | 0.00 | 0.01 | 0.00 | 85 | 1018.6 |
| 20260901023524 | 71 | 200 | 1.0 | 5.0 | 0.00 | 0.01 | 0.00 | 85 | 1018.7 |
| 20260901023059 | 71 | 0 | 1.0 | 5.0 | 0.00 | 0.01 | 0.00 | 85 | 1018.7 |
| 20260901022525 | 71 | 188 | 1.0 | 5.0 | 0.00 | 0.01 | 0.00 | 85 | 1018.6 |
| 20260901022025 | 71 | 0 | 0.0 | 5.0 | 0.00 | 0.01 | 0.00 | 85 | 1018.7 |
| 20260901021551 | 71 | 160 | 1.0 | 4.0 | 0.00 | 0.01 | 0.00 | 84 | 1018.6 |
| 20260901021025 | 71 | 167 | 0.0 | 4.0 | 0.00 | 0.01 | 0.00 | 84 | 1018.7 |
| 20260901020525 | 71 | 227 | 0.0 | 5.0 | 0.00 | 0.01 | 0.00 | 84 | 1018.7 |
| 20260901020045 | 71 | 167 | 1.0 | 5.0 | 0.00 | 0.01 | 0.00 | 84 | 1018.8 |
| 20260901015526 | 71 | 206 | 1.0 | 5.0 | 0.00 | 0.02 | 0.00 | 84 | 1018.9 |
| 20260901015026 | 71 | 159 | 1.0 | 4.0 | 0.00 | 0.02 | 0.00 | 84 | 1018.9 |
| 20260901014552 | 71 | 192 | 1.0 | 4.0 | 0.00 | 0.02 | 0.00 | 84 | 1018.9 |
| 20260901014023 | 71 | 229 | 1.0 | 4.0 | 0.00 | 0.02 | 0.00 | 84 | 1019.0 |
| 20260901013524 | 71 | 163 | 0.0 | 4.0 | 0.00 | 0.02 | 0.00 | 84 | 1019.1 |
| 20260901013049 | 71 | 203 | 0.0 | 2.0 | 0.00 | 0.02 | 0.00 | 84 | 1019.2 |
| 20260901012525 | 71 | 0 | 0.0 | 3.0 | 0.00 | 0.02 | 0.00 | 84 | 1018.9 |
| 20260901012024 | 71 | 184 | 0.0 | 3.0 | 0.00 | 0.02 | 0.00 | 83 | 1019.1 |
| 20260901011545 | 71 | 0 | 0.0 | 1.0 | 0.00 | 0.02 | 0.00 | 83 | 1019.1 |
| 20260901011026 | 71 | 0 | 0.0 | 3.0 | 0.00 | 0.02 | 0.00 | 83 | 1019.0 |
| 20260901010526 | 71 | 0 | 0.0 | 3.0 | 0.00 | 0.02 | 0.00 | 83 | 1019.0 |
| 20260901010045 | 71 | 183 | 1.0 | 3.0 | 0.00 | 0.02 | 0.00 | 83 | 1018.9 |
| 20260901005530 | 71 | 0 | 0.0 | 2.0 | 0.00 | 0.02 | 0.00 | 83 | 1019.0 |
| 20260901005025 | 71 | 200 | 0.0 | 3.0 | 0.00 | 0.02 | 0.00 | 83 | 1019.0 |
| 20260901004546 | 71 | 200 | 0.0 | 4.0 | 0.00 | 0.02 | 0.00 | 83 | 1018.9 |
| 20260901004022 | 71 | 0 | 0.0 | 4.0 | 0.00 | 0.02 | 0.00 | 82 | 1018.9 |
| 20260901003521 | 71 | 0 | 0.0 | 3.0 | 0.00 | 0.02 | 0.00 | 82 | 1018.9 |
| 20260901003051 | 71 | 0 | 0.0 | 4.0 | 0.00 | 0.02 | 0.00 | 82 | 1018.9 |
| 20260901002526 | 71 | 161 | 0.0 | 4.0 | 0.00 | 0.02 | 0.00 | 82 | 1018.9 |
| 20260901002026 | 71 | 196 | 1.0 | 5.0 | 0.00 | 0.02 | 0.00 | 81 | 1018.9 |
| 20260901001544 | 71 | 165 | 0.0 | 5.0 | 0.00 | 0.02 | 0.00 | 81 | 1018.8 |
| 20260901001025 | 71 | 150 | 1.0 | 5.0 | 0.00 | 0.02 | 0.00 | 81 | 1018.7 |
| 20260901000525 | 71 | 255 | 1.0 | 6.0 | 0.00 | 0.02 | 0.00 | 81 | 1018.7 |
| 20260901000045 | 71 | 198 | 0.0 | 7.0 | 0.00 | 0.02 | 0.00 | 80 | 1018.8 |
| 20260831235525 | 71 | 186 | 3.0 | 7.0 | 0.00 | 0.02 | 0.00 | 80 | 1018.8 |
| 20260831235040 | 71 | 216 | 1.0 | 6.0 | 0.00 | 0.02 | 0.00 | 80 | 1018.8 |
| 20260831234544 | 71 | 237 | 0.0 | 5.0 | 0.00 | 0.02 | 0.00 | 80 | 1019.0 |
| 20260831234026 | 71 | 0 | 2.0 | 5.0 | 0.00 | 0.02 | 0.00 | 80 | 1019.0 |
| 20260831233524 | 72 | 178 | 1.0 | 5.0 | 0.00 | 0.02 | 0.00 | 79 | 1019.1 |
| 20260831233050 | 72 | 202 | 1.0 | 5.0 | 0.00 | 0.02 | 0.00 | 79 | 1019.1 |
| 20260831232524 | 72 | 182 | 1.0 | 5.0 | 0.00 | 0.02 | 0.00 | 79 | 1019.2 |
| 20260831232023 | 72 | 190 | 1.0 | 5.0 | 0.00 | 0.02 | 0.00 | 78 | 1019.3 |
| 20260831231546 | 72 | 164 | 2.0 | 5.0 | 0.00 | 0.02 | 0.00 | 78 | 1019.2 |
| 20260831231024 | 72 | 0 | 1.0 | 3.0 | 0.00 | 0.02 | 0.00 | 78 | 1019.2 |
| 20260831230529 | 72 | 0 | 0.0 | 2.0 | 0.00 | 0.02 | 0.00 | 78 | 1019.2 |
| 20260831230046 | 72 | 0 | 0.0 | 6.0 | 0.00 | 0.02 | 0.00 | 78 | 1019.2 |
| 20260831225524 | 72 | 119 | 0.0 | 6.0 | 0.00 | 0.02 | 0.00 | 78 | 1019.1 |
| 20260831225023 | 72 | 172 | 2.0 | 7.0 | 0.00 | 0.02 | 0.00 | 77 | 1019.3 |
| 20260831224550 | 72 | 166 | 3.0 | 7.0 | 0.00 | 0.02 | 0.00 | 76 | 1019.3 |
| 20260831224023 | 73 | 273 | 1.0 | 5.0 | 0.00 | 0.02 | 0.00 | 74 | 1019.3 |
| 20260831223530 | 73 | 132 | 1.0 | 5.0 | 0.00 | 0.02 | 0.00 | 74 | 1019.4 |
| 20260831223046 | 73 | 0 | 2.0 | 7.0 | 0.00 | 0.02 | 0.00 | 72 | 1019.3 |
| 20260831222526 | 73 | 175 | 0.0 | 7.0 | 0.00 | 0.02 | 0.00 | 72 | 1019.2 |
| 20260831222025 | 73 | 226 | 3.0 | 7.0 | 0.00 | 0.02 | 0.00 | 72 | 1019.1 |
| 20260831221555 | 73 | 178 | 1.0 | 5.0 | 0.00 | 0.02 | 0.00 | 73 | 1019.1 |
| 20260831221028 | 73 | 198 | 0.0 | 3.0 | 0.00 | 0.02 | 0.00 | 73 | 1019.2 |
| 20260831220526 | 73 | 161 | 1.0 | 3.0 | 0.00 | 0.02 | 0.00 | 73 | 1019.2 |
| 20260831220055 | 73 | 137 | 0.0 | 1.0 | 0.00 | 0.02 | 0.00 | 74 | 1019.4 |
| 20260831215527 | 73 | 152 | 0.0 | 4.0 | 0.00 | 0.02 | 0.00 | 74 | 1019.4 |
| 20260831215026 | 73 | 0 | 0.0 | 4.0 | 0.00 | 0.02 | 0.00 | 74 | 1019.3 |
| 20260831214541 | 74 | 242 | 0.0 | 4.0 | 0.00 | 0.02 | 0.00 | 73 | 1019.3 |
| 20260831214026 | 74 | 207 | 1.0 | 3.0 | 0.00 | 0.02 | 0.00 | 73 | 1019.3 |
| 20260831213526 | 74 | 200 | 0.0 | 2.0 | 0.00 | 0.02 | 0.00 | 73 | 1019.2 |
| 20260831213047 | 74 | 0 | 0.0 | 4.0 | 0.00 | 0.02 | 0.00 | 73 | 1019.3 |
| 20260831212524 | 74 | 0 | 0.0 | 4.0 | 0.00 | 0.02 | 0.00 | 73 | 1019.4 |
| 20260831212026 | 74 | 159 | 1.0 | 3.0 | 0.00 | 0.02 | 0.00 | 73 | 1019.2 |
| 20260831211543 | 74 | 0 | 0.0 | 9.0 | 0.00 | 0.02 | 0.00 | 75 | 1019.3 |
| 20260831211026 | 74 | 218 | 1.0 | 9.0 | 0.00 | 0.02 | 0.00 | 75 | 1019.3 |
| 20260831210524 | 74 | 184 | 1.0 | 7.0 | 0.00 | 0.02 | 0.00 | 76 | 1019.3 |
| 20260831210041 | 74 | 196 | 2.0 | 10.0 | 0.00 | 0.02 | 0.00 | 76 | 1019.3 |
| 20260831205527 | 75 | 198 | 5.0 | 10.0 | 0.00 | 0.02 | 0.00 | 75 | 1019.3 |
| 20260831205028 | 75 | 178 | 3.0 | 9.0 | 0.00 | 0.02 | 0.00 | 74 | 1019.3 |
| 20260831204554 | 76 | 217 | 2.0 | 7.0 | 0.00 | 0.02 | 0.00 | 74 | 1019.2 |
| 20260831204027 | 76 | 0 | 2.0 | 6.0 | 0.00 | 0.02 | 0.00 | 73 | 1019.3 |
| 20260831203525 | 76 | 94 | 2.0 | 9.0 | 0.00 | 0.02 | 0.00 | 72 | 1019.2 |
| 20260831203045 | 76 | 77 | 1.0 | 9.0 | 0.00 | 0.02 | 0.00 | 72 | 1019.2 |
| 20260831202527 | 77 | 196 | 1.0 | 10.0 | 0.00 | 0.02 | 0.00 | 70 | 1019.3 |
| 20260831202025 | 77 | 178 | 5.0 | 10.0 | 0.00 | 0.02 | 0.00 | 69 | 1019.2 |
| 20260831201540 | 78 | 175 | 3.0 | 10.0 | 0.00 | 0.02 | 0.00 | 68 | 1019.2 |
| 20260831201023 | 78 | 160 | 5.0 | 10.0 | 0.00 | 0.02 | 0.00 | 68 | 1019.5 |
| 20260831200525 | 78 | 136 | 2.0 | 7.0 | 0.00 | 0.02 | 0.00 | 68 | 1019.5 |
| 20260831200054 | 78 | 237 | 1.0 | 7.0 | 0.00 | 0.02 | 0.00 | 69 | 1019.6 |
| 20260831195523 | 78 | 242 | 3.0 | 8.0 | 0.00 | 0.02 | 0.00 | 68 | 1019.4 |
| 20260831195023 | 78 | 212 | 2.0 | 9.0 | 0.00 | 0.02 | 0.00 | 69 | 1019.5 |
| 20260831194543 | 78 | 192 | 4.0 | 9.0 | 0.00 | 0.02 | 0.00 | 69 | 1019.6 |
| 20260831194025 | 78 | 209 | 4.0 | 9.0 | 0.00 | 0.02 | 0.00 | 68 | 1019.7 |
| 20260831193524 | 78 | 205 | 1.0 | 5.0 | 0.00 | 0.02 | 0.00 | 70 | 1019.7 |
| 20260831193047 | 77 | 194 | 1.0 | 5.0 | 0.00 | 0.02 | 0.00 | 70 | 1019.8 |
| 20260831192525 | 77 | 260 | 1.0 | 6.0 | 0.00 | 0.02 | 0.00 | 69 | 1019.7 |
| 20260831192026 | 78 | 0 | 2.0 | 6.0 | 0.00 | 0.02 | 0.00 | 69 | 1019.8 |
| 20260831191545 | 78 | 173 | 2.0 | 5.0 | 0.00 | 0.02 | 0.00 | 68 | 1019.8 |
| 20260831191025 | 78 | 0 | 0.0 | 5.0 | 0.00 | 0.02 | 0.00 | 69 | 1019.8 |
| 20260831190525 | 78 | 128 | 1.0 | 5.0 | 0.00 | 0.02 | 0.00 | 70 | 1019.9 |
| 20260831185524 | 77 | 133 | 0.0 | 5.0 | 0.00 | 0.02 | 0.00 | 70 | 1019.9 |
| 20260831185025 | 77 | 0 | 2.0 | 6.0 | 0.00 | 0.02 | 0.00 | 68 | 1020.1 |
| 20260831184543 | 77 | 200 | 2.0 | 6.0 | 0.00 | 0.02 | 0.00 | 68 | 1020.2 |
| 20260831184022 | 78 | 180 | 2.0 | 7.0 | 0.00 | 0.02 | 0.00 | 67 | 1020.2 |
| 20260831183524 | 77 | 129 | 2.0 | 7.0 | 0.00 | 0.02 | 0.00 | 68 | 1020.2 |
| 20260831183046 | 77 | 195 | 2.0 | 7.0 | 0.00 | 0.02 | 0.00 | 70 | 1020.2 |
| 20260831182529 | 76 | 260 | 1.0 | 5.0 | 0.00 | 0.02 | 0.00 | 70 | 1020.3 |
| 20260831182027 | 76 | 167 | 2.0 | 9.0 | 0.00 | 0.02 | 0.00 | 69 | 1020.3 |
| 20260831181544 | 76 | 184 | 3.0 | 9.0 | 0.00 | 0.02 | 0.00 | 68 | 1020.4 |
| 20260831181024 | 76 | 233 | 2.0 | 8.0 | 0.00 | 0.02 | 0.00 | 67 | 1020.3 |
| 20260831180528 | 76 | 187 | 3.0 | 9.0 | 0.00 | 0.02 | 0.00 | 66 | 1020.1 |
| 20260831180047 | 77 | 194 | 4.0 | 13.0 | 0.00 | 0.02 | 0.00 | 64 | 1020.3 |
| 20260831175522 | 77 | 175 | 3.0 | 13.0 | 0.00 | 0.02 | 0.00 | 64 | 1020.3 |
| 20260831175023 | 78 | 217 | 5.0 | 12.0 | 0.00 | 0.02 | 0.00 | 64 | 1020.3 |
| 20260831174546 | 79 | 192 | 5.0 | 9.0 | 0.00 | 0.02 | 0.00 | 65 | 1020.3 |
| 20260831174027 | 79 | 127 | 1.0 | 6.0 | 0.00 | 0.02 | 0.00 | 65 | 1020.4 |
| 20260831173526 | 79 | 184 | 1.0 | 5.0 | 0.00 | 0.02 | 0.00 | 64 | 1020.4 |
| 20260831173046 | 78 | 138 | 2.0 | 6.0 | 0.00 | 0.02 | 0.00 | 66 | 1020.4 |
| 20260831172524 | 77 | 155 | 0.0 | 9.0 | 0.00 | 0.02 | 0.00 | 68 | 1020.4 |
| 20260831172024 | 77 | 96 | 3.0 | 11.0 | 0.00 | 0.02 | 0.00 | 68 | 1020.4 |
| 20260831171545 | 77 | 207 | 4.0 | 11.0 | 0.00 | 0.02 | 0.00 | 67 | 1020.4 |
| 20260831171024 | 77 | 160 | 2.0 | 9.0 | 0.00 | 0.02 | 0.00 | 68 | 1020.4 |
| 20260831170526 | 77 | 201 | 3.0 | 12.0 | 0.00 | 0.02 | 0.00 | 66 | 1020.3 |
| 20260831170043 | 78 | 189 | 2.0 | 12.0 | 0.00 | 0.02 | 0.00 | 66 | 1020.5 |
| 20260831165524 | 78 | 216 | 4.0 | 9.0 | 0.00 | 0.02 | 0.00 | 63 | 1020.5 |
| 20260831165028 | 79 | 171 | 2.0 | 8.0 | 0.00 | 0.02 | 0.00 | 64 | 1020.4 |
| 20260831164558 | 79 | 303 | 3.0 | 8.0 | 0.00 | 0.02 | 0.00 | 62 | 1020.5 |
| 20260831164023 | 79 | 170 | 1.0 | 11.0 | 0.00 | 0.02 | 0.00 | 61 | 1020.6 |
| 20260831163526 | 80 | 294 | 2.0 | 11.0 | 0.00 | 0.02 | 0.00 | 59 | 1020.6 |
| 20260831163045 | 80 | 149 | 2.0 | 10.0 | 0.00 | 0.02 | 0.00 | 60 | 1020.5 |
| 20260831162524 | 81 | 180 | 3.0 | 10.0 | 0.00 | 0.02 | 0.00 | 57 | 1020.5 |
| 20260831162025 | 81 | 128 | 1.0 | 5.0 | 0.00 | 0.02 | 0.00 | 55 | 1020.6 |
| 20260831161546 | 81 | 0 | 0.0 | 6.0 | 0.00 | 0.02 | 0.00 | 55 | 1020.6 |
| 20260831161024 | 81 | 57 | 0.0 | 8.0 | 0.00 | 0.02 | 0.00 | 56 | 1020.6 |
| 20260831160523 | 81 | 15 | 3.0 | 9.0 | 0.00 | 0.02 | 0.00 | 60 | 1020.6 |
| 20260831160047 | 81 | 199 | 2.0 | 9.0 | 0.00 | 0.02 | 0.00 | 58 | 1020.6 |
| 20260831155524 | 81 | 198 | 0.0 | 2.0 | 0.00 | 0.02 | 0.00 | 56 | 1020.6 |
| 20260831155023 | 81 | 157 | 0.0 | 5.0 | 0.00 | 0.02 | 0.00 | 56 | 1020.6 |
| 20260831154606 | 81 | 225 | 1.0 | 5.0 | 0.00 | 0.02 | 0.00 | 59 | 1020.7 |
| 20260831154028 | 81 | 157 | 1.0 | 5.0 | 0.00 | 0.02 | 0.00 | 64 | 1020.6 |
| 20260831153527 | 80 | 0 | 0.0 | 6.0 | 0.00 | 0.02 | 0.00 | 63 | 1020.6 |
| 20260831153047 | 80 | 174 | 1.0 | 6.0 | 0.00 | 0.02 | 0.00 | 64 | 1020.7 |
| 20260831152524 | 80 | 171 | 1.0 | 6.0 | 0.00 | 0.02 | 0.00 | 64 | 1020.6 |
| 20260831152025 | 80 | 151 | 1.0 | 4.0 | 0.00 | 0.02 | 0.00 | 61 | 1020.6 |
| 20260831151553 | 80 | 118 | 1.0 | 7.0 | 0.00 | 0.02 | 0.00 | 62 | 1020.7 |
| 20260831151023 | 80 | 240 | 2.0 | 7.0 | 0.00 | 0.02 | 0.00 | 60 | 1020.5 |
| 20260831150524 | 80 | 50 | 0.0 | 3.0 | 0.00 | 0.02 | 0.00 | 61 | 1020.7 |
| 20260831150047 | 79 | 182 | 0.0 | 3.0 | 0.00 | 0.02 | 0.00 | 60 | 1020.8 |
| 20260831145523 | 79 | 148 | 1.0 | 6.0 | 0.00 | 0.02 | 0.00 | 61 | 1020.7 |
| 20260831145026 | 79 | 150 | 2.0 | 6.0 | 0.00 | 0.02 | 0.00 | 62 | 1020.7 |
| 20260831144541 | 79 | 69 | 1.0 | 5.0 | 0.00 | 0.02 | 0.00 | 61 | 1020.8 |
| 20260831144026 | 78 | 326 | 1.0 | 5.0 | 0.00 | 0.02 | 0.00 | 64 | 1020.8 |
| 20260831143528 | 78 | 142 | 0.0 | 5.0 | 0.00 | 0.02 | 0.00 | 64 | 1020.7 |
| 20260831143055 | 77 | 0 | 0.0 | 5.0 | 0.00 | 0.02 | 0.00 | 66 | 1020.6 |
| 20260831142524 | 77 | 128 | 1.0 | 4.0 | 0.00 | 0.02 | 0.00 | 66 | 1020.6 |
| 20260831142026 | 76 | 0 | 0.0 | 4.0 | 0.00 | 0.02 | 0.00 | 70 | 1020.6 |
| 20260831141546 | 76 | 286 | 0.0 | 4.0 | 0.00 | 0.02 | 0.00 | 70 | 1020.5 |
| 20260831141024 | 75 | 0 | 0.0 | 5.0 | 0.00 | 0.02 | 0.00 | 71 | 1020.5 |
| 20260831140528 | 75 | 0 | 1.0 | 5.0 | 0.00 | 0.02 | 0.00 | 72 | 1020.6 |
| 20260831140043 | 75 | 138 | 0.0 | 4.0 | 0.00 | 0.02 | 0.00 | 75 | 1020.4 |
| 20260831135523 | 74 | 0 | 0.0 | 4.0 | 0.00 | 0.02 | 0.00 | 74 | 1020.4 |
| 20260831135023 | 74 | 326 | 1.0 | 4.0 | 0.00 | 0.02 | 0.00 | 76 | 1020.4 |
| 20260831134553 | 73 | 346 | 1.0 | 4.0 | 0.00 | 0.02 | 0.00 | 78 | 1020.3 |
| 20260831134025 | 73 | 39 | 1.0 | 3.0 | 0.00 | 0.02 | 0.00 | 80 | 1020.2 |
| 20260831133532 | 73 | 172 | 0.0 | 2.0 | 0.00 | 0.02 | 0.00 | 82 | 1020.2 |
| 20260831133046 | 72 | 226 | 0.0 | 2.0 | 0.00 | 0.02 | 0.00 | 82 | 1020.1 |
| 20260831132530 | 72 | 0 | 0.0 | 4.0 | 0.00 | 0.02 | 0.00 | 84 | 1020.2 |
| 20260831132026 | 71 | 0 | 0.0 | 4.0 | 0.00 | 0.02 | 0.00 | 85 | 1020.2 |
| 20260831131546 | 70 | 333 | 0.0 | 3.0 | 0.00 | 0.02 | 0.00 | 87 | 1020.2 |
| 20260831131028 | 70 | 41 | 0.0 | 3.0 | 0.00 | 0.02 | 0.00 | 89 | 1020.1 |
| 20260831130523 | 69 | 0 | 0.0 | 2.0 | 0.00 | 0.02 | 0.00 | 91 | 1020.2 |
| 20260831130047 | 68 | 5 | 0.0 | 2.0 | 0.00 | 0.02 | 0.00 | 92 | 1020.1 |
| 20260831125523 | 68 | 0 | 0.0 | 0.0 | 0.00 | 0.02 | 0.00 | 93 | 1020.2 |
| 20260831125022 | 67 | 0 | 0.0 | 0.0 | 0.00 | 0.02 | 0.00 | 94 | 1020.2 |
| 20260831124547 | 67 | 0 | 0.0 | 0.0 | 0.00 | 0.02 | 0.00 | 94 | 1020.3 |
| 20260831124029 | 66 | 0 | 0.0 | 0.0 | 0.00 | 0.02 | 0.00 | 94 | 1020.2 |
| 20260831123524 | 66 | 0 | 0.0 | 0.0 | 0.00 | 0.02 | 0.00 | 94 | 1020.2 |
| 20260831123048 | 66 | 0 | 0.0 | 0.0 | 0.00 | 0.02 | 0.00 | 95 | 1020.2 |
| 20260831122528 | 66 | 0 | 0.0 | 0.0 | 0.00 | 0.02 | 0.00 | 95 | 1020.1 |
| 20260831122026 | 66 | 0 | 0.0 | 0.0 | 0.00 | 0.02 | 0.00 | 95 | 1020.2 |
| 20260831121547 | 65 | 0 | 0.0 | 0.0 | 0.00 | 0.02 | 0.00 | 95 | 1020.2 |
| 20260831121027 | 65 | 0 | 0.0 | 0.0 | 0.00 | 0.02 | 0.00 | 95 | 1020.2 |
| 20260831120527 | 65 | 0 | 0.0 | 0.0 | 0.00 | 0.02 | 0.00 | 95 | 1020.3 |
| 20260831120042 | 65 | 0 | 0.0 | 0.0 | 0.00 | 0.02 | 0.00 | 95 | 1020.3 |
| 20260831115522 | 65 | 0 | 0.0 | 0.0 | 0.00 | 0.02 | 0.00 | 95 | 1020.3 |
| 20260831115022 | 65 | 0 | 0.0 | 0.0 | 0.00 | 0.02 | 0.00 | 95 | 1020.2 |
| 20260831114542 | 65 | 0 | 0.0 | 0.0 | 0.00 | 0.02 | 0.00 | 95 | 1020.0 |